TimePST,TemperatureF,Dew PointF,Humidity,Sea Level PressureIn,VisibilityMPH,Wind Direction,Wind SpeedMPH,Gust SpeedMPH,PrecipitationIn,Events,Conditions,WindDirDegrees,DateUTC
12:56 AM,54.0,30.9,41,29.81,10.0,SW,18.4,31.1,N/A,,Mostly Cloudy,230,2013-03-07 08:56:00
1:56 AM,55.0,26.1,33,29.78,10.0,SW,15.0,-,N/A,,Mostly Cloudy,230,2013-03-07 09:56:00
2:56 AM,53.1,28.9,40,29.78,10.0,South,6.9,-,N/A,,Mostly Cloudy,170,2013-03-07 10:56:00
3:56 AM,52.0,30.9,45,29.78,10.0,South,15.0,-,N/A,,Mostly Cloudy,180,2013-03-07 11:56:00
4:56 AM,50.0,32.0,50,29.81,10.0,South,16.1,25.3,N/A,,Scattered Clouds,180,2013-03-07 12:56:00
5:56 AM,50.0,32.0,50,29.81,10.0,South,20.7,-,N/A,,Partly Cloudy,180,2013-03-07 13:56:00
6:56 AM,51.1,32.0,48,29.83,10.0,South,19.6,26.5,N/A,,Scattered Clouds,180,2013-03-07 14:56:00
7:56 AM,54.0,30.9,41,29.84,10.0,SSW,13.8,-,N/A,,Mostly Cloudy,200,2013-03-07 15:56:00
8:56 AM,57.0,30.0,36,29.84,10.0,South,17.3,-,N/A,,Mostly Cloudy,190,2013-03-07 16:56:00
9:56 AM,57.9,28.0,32,29.84,10.0,South,13.8,-,N/A,,Mostly Cloudy,190,2013-03-07 17:56:00
10:56 AM,60.1,28.9,31,29.84,10.0,South,10.4,-,N/A,,Mostly Cloudy,180,2013-03-07 18:56:00
11:56 AM,61.0,27.0,27,29.82,10.0,SSW,9.2,-,N/A,,Mostly Cloudy,210,2013-03-07 19:56:00
12:56 PM,60.1,26.1,27,29.79,10.0,SSW,4.6,-,N/A,,Mostly Cloudy,210,2013-03-07 20:56:00
1:56 PM,62.1,25.0,24,29.78,10.0,WSW,5.8,-,N/A,,Mostly Cloudy,240,2013-03-07 21:56:00
2:56 PM,61.0,27.0,27,29.77,10.0,SSW,9.2,-,N/A,,Overcast,200,2013-03-07 22:56:00
3:56 PM,61.0,30.0,31,29.76,10.0,SSW,12.7,-,N/A,,Overcast,200,2013-03-07 23:56:00
4:56 PM,61.0,30.9,32,29.77,10.0,SSW,10.4,-,N/A,,Overcast,200,2013-03-08 00:56:00
5:56 PM,59.0,30.9,35,29.78,10.0,SW,11.5,-,N/A,,Overcast,220,2013-03-08 01:56:00
6:56 PM,59.0,30.0,33,29.79,10.0,SSW,9.2,-,N/A,,Overcast,200,2013-03-08 02:56:00
7:56 PM,57.9,30.9,36,29.78,10.0,SSW,8.1,-,N/A,,Overcast,210,2013-03-08 03:56:00
8:56 PM,55.9,32.0,40,29.77,10.0,South,8.1,-,N/A,,Overcast,180,2013-03-08 04:56:00
9:56 PM,55.9,32.0,40,29.76,10.0,South,8.1,-,N/A,,Overcast,190,2013-03-08 05:56:00
10:56 PM,54.0,32.0,43,29.75,10.0,South,9.2,-,N/A,,Overcast,190,2013-03-08 06:56:00
11:56 PM,52.0,33.1,49,29.74,10.0,SW,5.8,-,N/A,,Mostly Cloudy,230,2013-03-08 07:56:00